Radioactive Concentration measured by Seawater Radiation Monitor near Fukushima Daiichi Nuclear Power Station
Date,Time,Cs137(Bq/L),Cs134(Bq/L),Total β(Bq/L)
2018/02/28,00:00,0.89,ND,ND
2018/02/28,00:10,0.87,0.028,ND
2018/02/28,00:20,0.86,0.042,ND
2018/02/28,00:30,0.86,0.032,ND
2018/02/28,00:40,0.84,0.032,8.9
2018/02/28,00:50,0.83,0.032,11
2018/02/28,01:00,0.82,0.045,9.3
2018/02/28,01:10,0.81,0.040,11
2018/02/28,01:20,0.81,0.037,12
2018/02/28,01:30,0.80,0.043,ND
2018/02/28,01:40,0.81,0.037,ND
2018/02/28,01:50,0.84,0.037,ND
2018/02/28,02:00,0.84,0.038,ND
2018/02/28,02:10,0.86,0.038,ND
2018/02/28,02:20,0.87,0.035,ND
2018/02/28,02:30,0.87,0.040,8.9
2018/02/28,02:40,0.87,0.043,ND
2018/02/28,02:50,0.85,0.041,ND
2018/02/28,03:00,0.85,0.042,ND
2018/02/28,03:10,0.82,0.045,ND
2018/02/28,03:20,0.83,0.050,ND
2018/02/28,03:30,0.83,0.046,ND
2018/02/28,03:40,0.85,0.045,ND
2018/02/28,03:50,0.87,0.035,ND
2018/02/28,04:00,0.88,0.033,ND
2018/02/28,04:10,0.90,0.035,ND
2018/02/28,04:20,0.90,0.033,ND
2018/02/28,04:30,0.91,0.035,ND
2018/02/28,04:40,0.88,0.041,ND
2018/02/28,04:50,0.88,0.049,ND
2018/02/28,05:00,0.88,0.044,ND
2018/02/28,05:10,0.86,0.047,ND
2018/02/28,05:20,0.85,0.048,ND
2018/02/28,05:30,0.81,0.059,ND
2018/02/28,05:40,0.83,0.051,ND
2018/02/28,05:50,0.84,0.046,ND
2018/02/28,06:00,0.83,0.046,ND
2018/02/28,06:10,0.85,0.049,ND
2018/02/28,06:20,0.86,0.043,ND
2018/02/28,06:30,0.90,0.034,ND
2018/02/28,06:40,0.87,0.045,ND
2018/02/28,06:50,0.84,0.051,ND
2018/02/28,07:00,0.86,0.052,ND
2018/02/28,07:10,0.88,0.047,ND
2018/02/28,07:20,0.91,0.037,ND
2018/02/28,07:30,0.91,0.043,ND
2018/02/28,07:40,0.91,0.051,ND
2018/02/28,07:50,0.93,0.053,ND
2018/02/28,08:00,0.93,0.044,ND
2018/02/28,08:10,0.91,0.038,ND
2018/02/28,08:20,0.91,0.044,ND
2018/02/28,08:30,0.90,0.038,ND
2018/02/28,08:40,0.91,0.031,ND
2018/02/28,08:50,0.90,0.033,ND
2018/02/28,09:00,0.89,0.034,ND
2018/02/28,09:10,0.91,0.042,ND
2018/02/28,09:20,0.89,0.039,ND
2018/02/28,09:30,0.88,0.038,ND
2018/02/28,09:40,0.87,0.035,ND
2018/02/28,09:50,0.87,0.029,ND
2018/02/28,10:00,0.86,0.031,ND
2018/02/28,10:10,0.85,0.029,ND
2018/02/28,10:20,0.84,0.038,ND
2018/02/28,10:30,0.83,0.042,ND
2018/02/28,10:40,0.84,0.039,ND
2018/02/28,10:50,0.85,0.033,9.7
2018/02/28,11:00,0.86,0.027,ND
2018/02/28,11:10,0.86,0.026,ND
2018/02/28,11:20,0.90,ND,ND
2018/02/28,11:30,0.89,ND,ND
2018/02/28,11:40,0.89,ND,8.8
2018/02/28,11:50,0.89,ND,ND
2018/02/28,12:00,0.86,0.030,ND
2018/02/28,12:10,0.84,0.044,ND
2018/02/28,12:20,0.84,0.053,ND
2018/02/28,12:30,0.88,0.042,ND
2018/02/28,12:40,0.84,0.055,ND
2018/02/28,12:50,0.82,0.052,ND
2018/02/28,13:00,0.81,0.048,ND
2018/02/28,13:10,0.81,0.039,ND
2018/02/28,13:20,0.82,0.025,ND
2018/02/28,13:30,0.79,0.038,ND
2018/02/28,13:40,0.81,0.032,ND
2018/02/28,13:50,0.83,0.032,ND
2018/02/28,14:00,0.83,0.036,ND
2018/02/28,14:10,0.83,0.030,ND
2018/02/28,14:20,0.82,0.033,ND
2018/02/28,14:30,0.81,0.032,ND
2018/02/28,14:40,0.82,0.029,9.0
2018/02/28,14:50,0.87,ND,9.2
2018/02/28,15:00,0.83,0.028,10
2018/02/28,15:10,0.83,0.034,11
2018/02/28,15:20,0.83,0.038,13
2018/02/28,15:30,0.85,0.034,10
2018/02/28,15:40,0.84,0.041,10
2018/02/28,15:50,0.83,0.051,11
2018/02/28,16:00,0.84,0.045,10
2018/02/28,16:10,0.84,0.043,ND
2018/02/28,16:20,0.82,0.052,ND
2018/02/28,16:30,0.84,0.047,ND
2018/02/28,16:40,0.84,0.038,8.9
2018/02/28,16:50,0.83,0.032,ND
2018/02/28,17:00,0.82,0.035,ND
2018/02/28,17:10,0.84,0.037,ND
2018/02/28,17:20,0.86,0.034,ND
2018/02/28,17:30,0.86,0.040,ND
2018/02/28,17:40,0.90,0.034,ND
2018/02/28,17:50,0.95,0.033,ND
2018/02/28,18:00,0.99,0.030,ND
2018/02/28,18:10,0.98,0.032,ND
2018/02/28,18:20,1.0,0.035,ND
2018/02/28,18:30,1.0,0.036,ND
2018/02/28,18:40,1.0,0.046,ND
2018/02/28,18:50,0.99,0.052,ND
2018/02/28,19:00,1.0,0.053,ND
2018/02/28,19:10,1.0,0.038,ND
2018/02/28,19:20,1.0,0.032,ND
2018/02/28,19:30,1.0,0.026,8.8
2018/02/28,19:40,1.0,0.034,ND
2018/02/28,19:50,1.0,0.034,ND
2018/02/28,20:00,1.0,0.039,ND
2018/02/28,20:10,1.0,0.047,ND
2018/02/28,20:20,1.0,0.046,ND
2018/02/28,20:30,1.0,0.047,ND
2018/02/28,20:40,1.0,0.042,ND
2018/02/28,20:50,1.0,0.042,ND
2018/02/28,21:00,0.99,0.036,ND
2018/02/28,21:10,0.98,0.040,ND
2018/02/28,21:20,0.97,0.045,ND
2018/02/28,21:30,0.95,0.043,ND
2018/02/28,21:40,0.92,0.048,8.8
2018/02/28,21:50,0.93,0.047,ND
2018/02/28,22:00,0.94,0.038,11
2018/02/28,22:10,0.96,0.037,11
2018/02/28,22:20,0.98,0.032,9.7
2018/02/28,22:30,0.96,0.045,9.6
2018/02/28,22:40,0.98,0.040,ND
2018/02/28,22:50,0.97,0.043,10
2018/02/28,23:00,0.96,0.048,ND
2018/02/28,23:10,0.95,0.045,ND
2018/02/28,23:20,0.94,0.043,ND
2018/02/28,23:30,0.94,0.035,ND
2018/02/28,23:40,0.90,0.034,ND
2018/02/28,23:50,0.87,0.037,ND
